SCP
0 0 1 1 1 1 0 1 1 1 1 1 0 0 0 1 1 1 1 1 1 1 1 1 1 1 1 1 1 1 1 1 1 1 0 0 0 1 1 1 1 1 1
0 0 1 1 1 1 1 1 1 1 0 0 1 1 1 1 1 1 1 1 1 1 1 1 1 1 1 1 1 1 1 1 1 1 0 0 0 1 1 1 1 1 1
0 0 1 1 1 1 1 1 1 1 0 1 1 1 1 1 1 1 1 0 1 1 1 1 1 1 1 1 1 1 1 1 1 1 0 0 0 1 1 1 1 1 1
0 0 1 1 1 1 1 1 1 1 1 1 1 1 1 1 1 0 0 0 0 0 1 1 1 1 1 0 0 1 1 1 0 0 0 0 0 1 1 1 1 1 1
0 0 1 1 1 1 1 1 1 1 1 1 1 1 1 0 0 0 0 0 0 0 1 1 1 1 0 0 0 0 1 0 0 0 0 0 0 1 1 1 1 1 1
0 0 1 1 1 1 1 1 1 1 1 1 1 0 0 0 0 0 0 0 0 0 1 1 1 0 0 0 0 0 0 0 0 0 0 0 0 1 1 1 1 0 0
0 1 1 1 1 1 1 1 1 1 1 1 0 0 0 0 0 0 0 0 0 0 1 1 1 0 0 0 0 0 0 0 0 0 0 0 0 1 1 1 1 0 0
1 1 1 1 1 1 1 1 1 1 1 0 0 1 1 1 1 1 1 0 0 0 0 1 1 1 0 0 0 0 1 0 0 0 0 0 0 1 1 1 1 1 1
1 1 1 1 1 1 1 1 1 1 0 0 0 0 1 1 0 0 0 0 0 0 0 0 0 1 1 1 1 1 1 1 0 0 0 0 0 0 0 1 1 1 1
1 1 1 1 1 0 1 1 1 1 0 0 0 1 1 1 0 0 0 0 0 0 0 0 0 0 1 1 1 1 1 1 0 0 0 0 0 0 1 1 1 1 1
1 1 1 1 1 1 1 1 1 0 0 0 0 1 1 1 1 0 0 0 1 0 0 0 0 0 1 1 1 1 1 0 0 0 0 0 0 1 1 1 1 1 1
1 1 1 1 1 1 1 1 0 0 0 0 0 0 0 0 0 0 0 1 1 0 1 1 1 1 1 1 1 1 1 0 0 0 0 0 1 1 1 1 1 1 1
1 1 1 1 1 1 1 0 0 0 0 0 0 0 0 0 0 0 0 0 0 0 0 1 1 1 1 1 1 1 1 1 1 0 0 1 1 1 1 1 1 1 2
1 1 1 1 1 1 0 0 0 0 0 0 0 0 0 0 0 0 0 0 0 0 0 0 1 1 1 1 1 1 1 1 1 1 0 1 1 1 1 1 1 2 2
1 1 1 1 1 1 0 0 0 0 0 0 0 0 0 0 0 0 0 0 0 0 0 0 0 1 1 1 1 1 1 1 1 1 1 1 1 1 1 1 1 2 2
2 2 1 1 1 1 1 0 0 0 0 0 0 0 0 0 0 0 0 0 0 0 0 0 0 0 0 1 1 1 1 1 1 1 1 1 1 1 1 1 1 1 1
2 2 2 1 1 1 1 1 0 0 0 0 0 0 0 0 0 0 0 0 0 0 0 0 0 0 0 0 0 1 1 1 1 1 1 1 1 1 1 1 1 1 1
2 2 2 2 1 1 1 1 1 0 0 0 0 0 0 0 0 0 0 0 0 0 0 0 0 0 0 0 0 0 0 1 1 1 1 1 1 1 1 1 1 1 1
2 2 2 2 2 1 1 1 1 1 0 0 0 0 0 0 0 0 0 0 0 0 0 0 0 0 0 0 0 0 0 0 0 0 1 1 1 1 1 1 1 1 1
2 3 2 2 2 1 1 1 1 1 0 0 0 0 0 0 0 0 0 0 0 0 0 0 0 0 0 0 0 0 0 0 0 0 0 0 0 0 1 1 1 1 1
3 3 2 2 2 1 1 1 1 1 1 0 0 0 0 0 0 0 0 0 0 0 0 0 0 0 0 0 0 0 0 0 0 0 0 0 0 0 0 1 1 1 1
4 3 3 2 2 2 1 1 1 1 1 0 0 0 0 0 0 0 0 0 0 0 0 0 0 0 0 0 0 0 0 0 0 0 0 0 0 0 0 1 1 1 1
4 4 3 2 2 2 1 1 1 1 1 0 0 0 0 0 0 0 0 0 0 0 0 0 0 0 0 0 0 0 0 0 0 0 0 0 0 0 0 1 1 1 1
4 4 3 3 2 2 1 1 1 1 1 0 0 0 0 0 0 0 0 0 0 0 0 0 0 0 0 0 0 0 0 0 0 0 0 0 0 0 0 0 1 1 1
4 5 4 3 2 2 2 1 1 1 1 1 0 0 0 0 0 0 0 0 0 0 0 0 0 0 0 0 0 0 0 0 0 0 0 0 0 0 0 0 0 0 1
5 5 5 4 3 2 2 2 1 1 1 1 0 0 0 0 0 0 0 0 0 0 0 0 0 0 0 0 0 0 0 0 0 0 0 0 0 0 0 0 0 0 0
Wind_Speed
1 1 6 8 8 9 9 9 10 10 9 10 11 10 11 11 11 11 11 11 11 10 11 11 11 11 11 10 10 10 10 9 9 9 9 9 9 9 9 9 8 5 9
4 3 7 8 9 10 10 10 10 10 10 10 10 10 10 10 10 11 11 11 10 10 10 11 10 10 10 10 10 9 9 9 9 9 9 7 8 8 8 9 8 5 9
5 4 6 8 9 10 10 10 10 10 10 10 10 10 10 10 10 10 10 10 10 10 10 10 10 9 10 10 10 9 9 8 9 9 8 4 4 8 8 8 9 9 9
6 4 6 8 9 10 10 10 10 10 10 10 10 10 10 9 9 9 9 9 9 9 9 9 9 9 9 9 9 9 9 8 9 8 4 3 3 7 8 8 9 9 8
6 5 6 9 9 9 10 10 10 10 10 10 10 9 9 9 9 9 9 9 9 9 9 9 8 8 8 8 8 8 8 9 8 6 3 3 3 6 8 8 8 8 8
6 4 6 10 9 9 10 10 10 10 10 10 9 9 9 9 9 9 9 8 8 8 8 8 7 7 7 7 7 8 8 8 7 4 3 2 2 6 8 8 8 8 8
5 4 6 10 9 9 9 9 10 10 9 9 9 9 9 9 9 9 8 8 8 7 7 7 7 7 7 7 7 8 8 8 5 4 3 2 4 8 8 8 8 8 7
7 5 5 8 9 9 9 9 9 9 9 9 9 8 8 8 8 8 8 8 8 7 7 6 6 6 6 7 7 7 7 6 5 5 3 2 6 8 8 8 8 8 7
6 5 3 3 5 8 8 8 9 8 8 8 8 8 8 8 7 7 8 8 7 7 6 6 6 6 6 7 8 8 8 8 4 2 3 2 6 8 8 8 8 8 7
5 5 3 3 3 3 3 7 8 8 7 7 8 7 7 7 6 6 6 6 6 6 6 6 5 5 6 7 8 8 8 6 3 3 2 3 7 8 8 8 7 7 7
4 4 3 3 2 2 2 4 5 6 6 5 5 6 5 3 3 3 3 5 5 5 5 5 5 5 6 6 7 8 6 3 3 2 2 5 7 8 8 7 7 7 7
4 4 3 3 3 2 3 3 1 2 2 2 2 2 2 2 2 3 3 4 5 5 4 5 5 5 4 3 5 6 3 3 2 2 3 7 7 7 7 7 7 7 7
5 5 4 4 3 3 2 2 1 1 1 1 2 2 2 2 2 2 2 2 3 4 3 3 3 3 3 2 2 3 3 2 1 1 3 7 7 7 7 7 7 8 8
5 5 4 4 3 3 3 2 2 1 1 1 1 2 2 2 1 1 1 1 2 1 2 2 2 3 3 3 3 3 3 2 2 1 2 6 6 7 6 7 7 8 8
5 5 4 5 4 3 2 2 2 1 1 2 2 2 3 2 1 1 1 1 1 2 2 2 3 4 3 3 3 4 3 3 2 2 2 5 5 6 5 6 7 8 8
5 4 4 4 4 4 3 2 2 2 1 2 2 2 3 2 2 2 2 2 1 2 2 2 3 3 3 3 4 3 3 3 2 2 2 2 4 5 5 5 6 7 7
5 5 5 5 4 4 3 3 2 2 2 2 2 2 3 3 3 3 2 2 2 2 3 3 4 3 4 3 3 3 2 2 2 2 2 1 2 3 4 4 5 6 6
5 5 4 5 5 4 3 3 2 2 2 2 2 2 3 3 3 3 3 2 2 3 3 3 3 4 3 3 3 2 2 2 2 2 2 2 2 1 3 4 4 5 5
6 6 4 4 5 4 3 3 2 2 2 2 2 2 2 3 3 3 2 2 2 3 3 3 3 3 3 3 2 2 2 2 1 2 2 2 2 1 1 2 4 4 5
5 5 5 4 4 4 3 3 2 2 2 2 2 2 3 2 3 3 2 2 3 3 3 3 3 3 2 2 3 3 3 2 2 2 2 2 2 2 2 2 2 2 3
5 4 4 4 4 4 3 2 2 1 1 1 1 2 2 3 3 3 3 2 3 3 3 3 3 3 2 2 3 3 3 3 3 2 2 2 2 2 2 2 2 2 1
5 4 4 5 4 4 3 3 2 2 1 1 1 1 2 2 2 3 3 2 2 3 3 3 3 2 1 1 2 2 2 3 4 4 2 2 2 2 2 2 2 2 1
5 5 5 5 5 4 4 3 3 2 2 1 1 1 0 1 2 2 3 3 2 3 2 2 3 3 2 0 1 3 3 1 1 3 3 3 3 2 1 1 1 1 1
5 5 5 5 4 4 5 5 5 4 3 2 1 1 0 1 2 2 3 3 3 2 2 2 2 2 3 1 0 1 2 3 2 1 3 3 3 2 2 1 1 1 1
4 4 4 4 4 4 5 6 5 3 2 1 1 1 1 1 1 2 3 3 2 2 2 2 2 2 2 2 2 1 1 1 2 2 1 2 3 2 1 1 0 0 0
3 3 3 4 3 4 4 5 5 5 4 3 2 1 1 0 1 1 3 2 2 2 2 2 2 2 2 2 1 2 2 2 2 2 2 1 1 2 2 1 0 0 0
Wind_Direction
154 162 103 96 95 94 96 97 95 93 90 92 93 92 91 91 91 91 90 89 87 87 86 86 87 86 87 89 90 91 93 96 98 102 105 107 110 112 113 116 115 111 120
156 135 105 97 97 96 95 95 93 91 90 93 94 95 94 93 93 93 93 92 89 89 88 89 89 88 87 87 88 90 91 93 96 100 99 100 106 110 114 118 119 117 120
135 128 109 100 98 95 95 93 92 90 89 93 94 95 95 94 94 95 95 95 93 92 91 89 89 89 88 86 84 85 86 91 96 97 93 83 97 107 110 115 117 117 120
132 125 110 104 101 98 96 94 93 92 90 90 91 93 92 91 92 96 98 98 98 95 94 92 89 88 86 83 81 81 82 90 96 95 82 75 92 105 111 112 113 113 115
128 124 119 112 107 104 100 98 97 95 92 90 92 92 91 90 89 93 97 98 98 96 95 94 93 91 86 83 80 80 81 85 90 87 77 71 79 104 111 112 113 115 113
126 127 124 118 113 110 107 103 100 97 95 93 94 94 93 92 92 92 94 94 95 95 95 95 94 90 86 83 78 79 81 82 79 76 75 78 91 107 110 111 113 115 113
129 129 128 121 116 112 110 107 102 100 99 98 97 95 94 93 92 91 94 95 96 98 97 94 93 92 91 85 77 78 83 84 80 80 76 87 105 112 110 108 109 113 114
135 130 128 128 124 119 114 111 107 105 102 100 100 96 95 96 94 96 100 101 99 96 92 91 89 89 87 83 78 77 79 84 82 80 72 86 115 113 108 107 107 108 111
130 127 118 127 126 123 120 117 115 109 105 104 105 99 95 97 97 101 106 104 102 99 93 86 81 79 77 77 76 78 82 80 72 74 84 87 111 111 108 107 106 108 110
128 128 130 119 108 111 117 119 117 111 108 106 107 103 97 96 96 100 109 107 105 100 95 88 82 81 80 78 77 80 79 74 61 62 67 100 109 112 109 106 104 104 109
136 141 142 133 127 128 126 120 117 115 107 101 100 101 89 66 63 74 99 106 106 102 94 86 81 84 84 79 76 75 70 66 67 67 76 100 106 108 108 106 106 105 103
148 157 156 153 159 153 138 107 92 92 85 80 79 83 74 64 55 66 66 90 95 94 86 76 76 80 72 65 70 69 62 63 67 67 84 98 103 103 101 106 108 106 104
157 152 155 156 152 138 125 121 100 78 80 85 91 93 83 64 47 52 50 54 61 72 62 60 58 63 71 67 64 72 70 65 57 58 77 93 98 102 102 105 106 103 103
145 145 145 142 135 132 124 122 120 107 98 90 98 108 99 84 63 54 59 59 52 60 66 57 65 72 73 74 77 79 79 73 65 53 68 88 94 100 102 106 106 104 102
146 143 146 140 140 134 122 120 106 107 109 105 93 106 114 107 88 68 56 60 72 80 84 76 74 73 73 72 76 85 87 84 81 65 62 81 91 96 101 110 113 112 106
151 149 142 139 137 126 124 122 120 117 109 98 99 109 114 110 102 96 80 71 70 77 80 86 88 84 78 73 63 65 80 85 77 69 50 63 79 88 92 107 113 112 107
159 148 140 142 130 124 124 126 120 115 104 100 101 98 100 102 103 102 92 72 69 79 84 79 75 75 77 69 57 58 67 75 74 64 57 41 49 73 87 99 110 110 109
151 143 146 141 131 131 133 127 117 112 105 104 107 105 102 102 104 97 87 81 90 89 83 84 80 78 67 63 56 44 45 60 68 60 58 55 51 47 65 81 98 108 108
160 152 151 140 140 140 133 115 110 103 96 90 91 103 114 105 102 100 97 93 92 89 86 91 79 89 83 67 63 50 36 42 47 53 52 59 71 65 56 66 84 102 107
153 152 156 148 142 136 122 101 84 71 69 75 87 103 105 105 105 103 100 99 94 90 83 90 94 76 82 78 72 51 30 25 38 45 49 48 60 74 70 58 57 69 89
142 145 156 148 148 135 127 124 119 116 114 91 97 109 104 106 111 110 108 105 100 105 111 113 108 90 73 83 76 39 14 22 39 30 34 53 42 46 68 71 59 50 45
159 155 153 156 158 156 155 149 146 142 143 138 109 95 107 115 121 120 122 119 114 109 101 107 113 110 105 90 109 94 32 3 3 17 25 52 39 39 53 67 65 73 59
163 166 167 165 163 159 145 122 99 73 56 46 56 70 133 123 124 122 124 121 121 124 134 142 138 136 146 350 108 131 132 188 320 345 4 21 26 38 32 40 63 68 78
175 169 166 170 167 162 146 140 143 148 161 196 185 173 139 112 121 128 127 126 127 129 140 160 147 144 139 151 24 69 135 152 145 336 336 350 10 29 28 46 48 67 73
168 164 162 164 167 165 157 153 154 154 170 166 141 127 116 93 115 125 129 129 130 132 141 134 130 136 144 154 155 129 87 75 109 134 246 319 346 343 352 2 64 70 56
153 153 158 156 170 166 159 161 163 160 156 145 154 160 159 130 122 123 130 131 139 139 148 147 138 138 144 141 143 142 150 153 166 146 168 241 298 309 328 338 356 78 152